[[{"header":{"parameterUnit":"m.s-1","parameterCategory":1,"la1":30.2991,"la2":30.254,"lo1":-89.0895,"lo2":-89.0444,"dy":0.0017,"dx":0.0017,"nx":28,"ny":28,"refTime":"2024-08-04T21:00:00:Z","depth":0,"parameterNumber":2,"parameterNumberName":"U-component_of_WINDS"},"data":[0,0,0,0,0,0,0,0,0,0,0,0,0,0,0,0,0,0,0,0,0,0,0,0,0,0,0,0,0,0,0,0,0,0,0,0,0,0,0,0,0,0,0,0,0,0,0,0,0,0,0,0,0,0,0,0,0,0,0.7132,0.7134,0,0.732,0.7322,0.7324,0.747,0.7471,0.7472,0.7474,0.7646,0.7649,0.7652,0,0,0,0,0,0,0,0,0,0,0,0,0,0.6878,0.6882,0.7132,0.7134,0.7137,0.732,0.7323,0.7325,0.7469,0.7471,0.7473,0.7474,0.7644,0.7648,0.7652,0,0,0,0,0,0,0,0,0,0,0,0,0,0.7019,0.6883,0.7131,0.7231,0.7242,0.7319,0.7323,0.7326,0.7469,0.7471,0.7473,0.7475,0.7643,0.7648,0.7653,0.7639,0,0,0.7668,0.767,0,0,0,0,0,0,0,0,0.7011,0.7028,0.7214,0.7225,0.7237,0.7374,0.7296,0.743,0.7468,0.7382,0.7474,0.7476,0.7552,0.7565,0.7594,0.7648,0.7655,0.7668,0.7671,0.7673,0.7674,0,0,0,0,0,0,0,0.7001,0.702,0.7206,0.7217,0.7231,0.726,0.7283,0.7322,0.7452,0.739,0.7401,0.7422,0.7558,0.7589,0.7599,0.7657,0.7668,0.7672,0.7675,0.7677,0.7708,0.7706,0,0,0,0,0,0,0.6978,0.7011,0.72,0.7212,0.7128,0.7263,0.7288,0.7327,0.7452,0.7474,0.742,0.7428,0.758,0.7594,0.7606,0.7599,0.7673,0.7677,0.768,0.771,0.7708,0.7706,0,0,0,0,0,0,0.6972,0.6994,0.7192,0.7115,0.7143,0.7266,0.7308,0.733,0.7362,0.7476,0.7497,0.7429,0.7582,0.7599,0.7632,0.7606,0.768,0.7684,0.7713,0.771,0.7707,0.7583,0,0,0,0,0,0,0.6964,0.6991,0.6991,0.7114,0.7146,0.722,0.7307,0.7332,0.7372,0.7384,0.749,0.7509,0.7585,0.7624,0.7636,0.7614,0.7688,0.7715,0.7711,0.7708,0.759,0.7576,0.7564,0,0,0,0,0,0.6955,0.6944,0.6991,0.7012,0.715,0.7218,0.7236,0.733,0.7369,0.7368,0.7441,0.7506,0.7608,0.7626,0.7641,0.762,0.7717,0.7713,0.7708,0.7595,0.7579,0.7565,0,0,0,0,0,0,0.6806,0.6962,0.7015,0.7045,0.7118,0.7243,0.7243,0.7309,0.7366,0.7375,0.7483,0.7505,0.7525,0.7576,0.7593,0.7614,0.7671,0.7669,0.758,0.7565,0.7552,0.7538,0.7692,0,0,0,0,0,0.6779,0.6828,0.6958,0.6971,0.7007,0.7119,0.7151,0.7219,0.7295,0.7325,0.7401,0.7467,0.7515,0.7543,0.7593,0.7599,0.7622,0.7592,0.7579,0.7568,0.7564,0.757,0.7557,0.769,0.769,0.769,0,0,0.6718,0.681,0.6832,0.6944,0.7009,0.7051,0.7143,0.7183,0.7214,0.7329,0.7366,0.7423,0.7504,0.7524,0.7536,0.7567,0.7533,0.7562,0.7553,0.7555,0.7563,0.7551,0.7539,0.7687,0.7688,0.7688,0,0,0.6631,0.6706,0.6727,0.6792,0.6892,0.6967,0.6972,0.7088,0.7133,0.7174,0.7261,0.7295,0.7375,0.743,0.7468,0.7404,0.7464,0.7417,0.7349,0.7353,0.7342,0.7333,0.7308,0.7298,0.7413,0.7413,0.7413,0,0.6541,0.6615,0.6726,0.6764,0.6809,0.6924,0.6942,0.6996,0.7103,0.7129,0.7164,0.7269,0.7331,0.7364,0.735,0.7377,0.7382,0.7404,0.7336,0.7328,0.7322,0.7299,0.7289,0.7407,0.7407,0.7408,0.7409,0,0.6499,0.6549,0.6552,0.6663,0.6708,0.6734,0.6844,0.6875,0.6939,0.7009,0.7047,0.7127,0.7195,0.7209,0.7268,0.725,0.7266,0.7317,0.7376,0.7301,0.7281,0.7273,0.7397,0.7399,0.7401,0.7403,0,0,0.6318,0.6495,0.6494,0.6546,0.6666,0.6703,0.6733,0.6809,0.6832,0.6902,0.6927,0.6994,0.7044,0.7086,0.7153,0.7157,0.7099,0.7208,0.7211,0.7182,0.7081,0.704,0.7028,0.7142,0.7141,0.714,0.7073,0,0.6247,0.6318,0.642,0.6452,0.6498,0.6609,0.6635,0.6708,0.6774,0.6817,0.6888,0.6934,0.6997,0.7023,0.7033,0.7104,0.708,0.7111,0.7159,0.716,0.7133,0.7018,0.6974,0.6908,0.7067,0.7065,0.7065,0,0.6173,0.6247,0.6286,0.6406,0.6429,0.6451,0.6528,0.657,0.6654,0.6702,0.6752,0.6827,0.6859,0.6915,0.6958,0.6977,0.7003,0.7041,0.7041,0.7045,0.7105,0.7016,0.6889,0.6877,0.7054,0.7055,0.7055,0,0.6034,0.6142,0.6181,0.6222,0.6363,0.6376,0.6433,0.6521,0.6559,0.6624,0.6649,0.6714,0.6748,0.6794,0.6882,0.6915,0.6914,0.6977,0.6949,0.6946,0.694,0.6938,0.6811,0.6962,0.6962,0.6962,0.6963,0,0.5943,0.5961,0.6122,0.6144,0.6168,0.6283,0.63,0.6367,0.6444,0.6477,0.6576,0.6602,0.672,0.6758,0.6827,0.685,0.6865,0.69,0.6917,0.689,0.6885,0.6905,0.6911,0.696,0.696,0.6961,0.6961,0,0.5789,0.5899,0.5947,0.608,0.6113,0.6124,0.6234,0.6257,0.6332,0.6372,0.6388,0.6501,0.6553,0.6648,0.6723,0.6769,0.6776,0.6809,0.675,0.676,0.6725,0.6726,0.6604,0.6592,0.6752,0.6751,0.6749,0,0.5722,0.5741,0.5878,0.5912,0.5969,0.602,0.6063,0.6177,0.6215,0.6314,0.6324,0.6385,0.644,0.6516,0.66,0.6658,0.669,0.6644,0.6699,0.6671,0.6686,0.6683,0.6683,0.6629,0.6627,0.6625,0.6624,0,0.559,0.5645,0.5707,0.5788,0.5839,0.5906,0.5976,0.5996,0.6124,0.6162,0.6221,0.6264,0.6346,0.6402,0.6474,0.6526,0.6593,0.6607,0.6603,0.6573,0.6537,0.6553,0.6712,0.6608,0.661,0.6611,0.6612,0.6612,0.5476,0.5499,0.5601,0.5666,0.5734,0.5799,0.5828,0.591,0.5964,0.6045,0.6107,0.6159,0.6241,0.6346,0.6394,0.6432,0.6464,0.6459,0.6457,0.6453,0.644,0.6535,0.6445,0.6446,0.6447,0.6447,0.6448,0,0.5347,0.542,0.548,0.5582,0.5632,0.5703,0.5786,0.582,0.5869,0.5944,0.5999,0.6064,0.6121,0.6213,0.6276,0.6288,0.6321,0.63,0.6298,0.6308,0.641,0.6406,0.6273,0.6273,0.6273,0.6273,0.6273,0.6273,0.5286,0.5328,0.5394,0.5469,0.5539,0.5599,0.564,0.5698,0.576,0.5832,0.5883,0.5946,0.6026,0.6096,0.615,0.6175,0.6191,0.616,0.6194,0.6285,0.6301,0.6317,0.6314,0.6164,0.6164,0.6089,0.6089,0.6088]},{"header":{"parameterUnit":"m.s-1","parameterCategory":1,"la1":30.2991,"la2":30.254,"lo1":-89.0895,"lo2":-89.0444,"dy":0.0017,"dx":0.0017,"nx":28,"ny":28,"refTime":"2024-08-04T21:00:00:Z","depth":0,"parameterNumber":3,"parameterNumberName":"V-component_of_WINDS"},"data":[0,0,0,0,0,0,0,0,0,0,0,0,0,0,0,0,0,0,0,0,0,0,0,0,0,0,0,0,0,0,0,0,0,0,0,0,0,0,0,0,0,0,0,0,0,0,0,0,0,0,0,0,0,0,0,0,0,0,0.2257,0.2257,0,0.228,0.228,0.228,0.2369,0.2371,0.2373,0.2375,0.2389,0.2388,0.2387,0,0,0,0,0,0,0,0,0,0,0,0,0,0.2285,0.2284,0.2257,0.2257,0.2257,0.228,0.228,0.228,0.2368,0.2371,0.2373,0.2376,0.239,0.2388,0.2386,0,0,0,0,0,0,0,0,0,0,0,0,0,0.2286,0.2283,0.2257,0.2304,0.2309,0.228,0.228,0.228,0.2368,0.2371,0.2374,0.2377,0.2391,0.2388,0.2386,0.2311,0,0,0.2379,0.2378,0,0,0,0,0,0,0,0,0.2286,0.2285,0.2297,0.2301,0.2306,0.2325,0.2295,0.229,0.2367,0.2345,0.2375,0.2378,0.2365,0.2365,0.2362,0.2311,0.2312,0.2379,0.2378,0.2377,0.2376,0,0,0,0,0,0,0,0.2286,0.2285,0.2265,0.2297,0.2302,0.2323,0.2326,0.2295,0.2337,0.2347,0.2354,0.2356,0.2368,0.2364,0.2363,0.2312,0.2379,0.2377,0.2376,0.2375,0.2206,0.2203,0,0,0,0,0,0,0.228,0.2284,0.2265,0.2266,0.2304,0.232,0.2324,0.2315,0.2338,0.2344,0.2353,0.236,0.2367,0.2366,0.2364,0.228,0.2377,0.2375,0.2373,0.2209,0.2205,0.2202,0,0,0,0,0,0,0.228,0.2277,0.2264,0.2277,0.2277,0.2316,0.2306,0.2314,0.2311,0.2342,0.235,0.2342,0.2369,0.2367,0.2325,0.2282,0.2374,0.2371,0.2212,0.2208,0.2203,0.211,0,0,0,0,0,0,0.2281,0.2277,0.2249,0.2276,0.2276,0.2225,0.2303,0.2312,0.2307,0.2316,0.2334,0.2339,0.2371,0.2328,0.2323,0.228,0.237,0.2216,0.221,0.2205,0.2117,0.2102,0.209,0,0,0,0,0,0.2281,0.2219,0.2247,0.2244,0.2242,0.2222,0.2222,0.2263,0.2304,0.2276,0.2297,0.2339,0.2288,0.2323,0.2318,0.2274,0.2219,0.2212,0.2205,0.2123,0.2105,0.209,0,0,0,0,0,0,0.2181,0.2223,0.2255,0.2199,0.2207,0.2237,0.2203,0.2242,0.2236,0.2244,0.2292,0.2295,0.2247,0.2256,0.2294,0.2205,0.2261,0.2252,0.22,0.2183,0.217,0.2168,0.2368,0,0,0,0,0,0.2153,0.2136,0.2172,0.212,0.2123,0.2162,0.2155,0.2187,0.2195,0.2198,0.2216,0.2221,0.2207,0.2196,0.2184,0.2119,0.2126,0.2087,0.2074,0.2063,0.2054,0.2025,0.2009,0.2178,0.2179,0.2179,0,0,0.2094,0.2115,0.21,0.2101,0.211,0.209,0.2164,0.2138,0.2124,0.2193,0.2156,0.217,0.2179,0.2126,0.2104,0.2132,0.201,0.2054,0.2045,0.2042,0.2016,0.2,0.1985,0.2174,0.2175,0.2175,0,0,0.1976,0.199,0.195,0.196,0.1976,0.2004,0.1994,0.202,0.2033,0.1998,0.205,0.2033,0.2006,0.2013,0.2012,0.1904,0.1942,0.1898,0.1827,0.1798,0.1785,0.1773,0.1736,0.1722,0.189,0.189,0.189,0,0.1899,0.1874,0.1923,0.1897,0.1896,0.1963,0.1923,0.1929,0.1939,0.1936,0.197,0.1942,0.1952,0.1904,0.1879,0.1875,0.1866,0.1895,0.1783,0.1772,0.1762,0.1727,0.1713,0.1884,0.1885,0.1886,0.1886,0,0.178,0.1762,0.1727,0.174,0.1736,0.1702,0.1746,0.1736,0.1769,0.1794,0.1758,0.1774,0.1769,0.176,0.179,0.1717,0.1735,0.1775,0.1832,0.174,0.1708,0.1695,0.1877,0.1879,0.188,0.1882,0,0,0.1595,0.1641,0.1628,0.1637,0.1662,0.1648,0.1618,0.1618,0.1609,0.1614,0.1591,0.1571,0.161,0.1609,0.1641,0.1615,0.1532,0.1659,0.166,0.1636,0.1456,0.1426,0.141,0.1559,0.1557,0.1555,0.1456,0,0.1485,0.1439,0.1486,0.143,0.1415,0.1482,0.1457,0.1469,0.1492,0.1482,0.1507,0.1493,0.1544,0.1545,0.1523,0.1547,0.1496,0.1554,0.1537,0.1536,0.1533,0.1393,0.136,0.1265,0.1443,0.1441,0.144,0,0.1348,0.1354,0.1298,0.1332,0.1327,0.1304,0.131,0.1299,0.1316,0.1335,0.1338,0.1379,0.1353,0.141,0.1376,0.1414,0.1411,0.1422,0.1419,0.1419,0.1482,0.1389,0.1236,0.1222,0.1421,0.1422,0.1423,0,0.1221,0.1214,0.1181,0.1186,0.1224,0.1207,0.1222,0.1242,0.124,0.1245,0.1245,0.1244,0.1244,0.1243,0.1283,0.1321,0.1244,0.1304,0.1259,0.1258,0.1238,0.1239,0.1083,0.1235,0.1236,0.1236,0.1236,0,0.1093,0.1056,0.1126,0.1105,0.1067,0.1122,0.1082,0.1104,0.1122,0.1107,0.1163,0.1148,0.1202,0.1192,0.1224,0.1192,0.119,0.1205,0.1214,0.12,0.1198,0.1197,0.1205,0.1232,0.1233,0.1234,0.1234,0,0.0943,0.0988,0.0957,0.0999,0.1008,0.0979,0.1014,0.0996,0.1026,0.1007,0.1005,0.105,0.1042,0.1084,0.1081,0.1102,0.1055,0.1074,0.105,0.1056,0.1009,0.1014,0.0847,0.0829,0.0992,0.0991,0.0989,0,0.0858,0.0833,0.0874,0.087,0.0883,0.0874,0.0875,0.0928,0.0926,0.0947,0.0927,0.0925,0.0926,0.091,0.0942,0.0942,0.0962,0.0904,0.0962,0.0951,0.0963,0.0964,0.0963,0.0891,0.0889,0.0888,0.0886,0,0.0703,0.0728,0.0728,0.0737,0.0737,0.0745,0.0757,0.075,0.0808,0.0803,0.0798,0.0799,0.0801,0.0798,0.0806,0.082,0.0863,0.0869,0.0859,0.0844,0.0832,0.084,0.1018,0.0871,0.0873,0.0874,0.0875,0.0875,0.0584,0.0567,0.0594,0.0593,0.0609,0.0621,0.0608,0.0639,0.0636,0.0644,0.0676,0.0666,0.0687,0.0703,0.0714,0.0706,0.0734,0.0718,0.0714,0.071,0.0703,0.0834,0.0708,0.0708,0.0709,0.0709,0.0709,0,0.0434,0.0456,0.0455,0.0473,0.0473,0.0518,0.0535,0.0531,0.0523,0.0541,0.0543,0.0539,0.0538,0.0573,0.0576,0.0564,0.0584,0.0563,0.0564,0.0568,0.0677,0.0686,0.0547,0.0547,0.0547,0.0547,0.0547,0.0547,0.0355,0.0329,0.0358,0.0341,0.0364,0.0357,0.0364,0.0375,0.0391,0.0385,0.0386,0.041,0.0435,0.0443,0.0444,0.0455,0.0454,0.0426,0.0443,0.0544,0.0559,0.0574,0.0583,0.0425,0.0425,0.0335,0.0334,0.0333]}]]